• Join FlightAware (Why Join?)
  • Login
  • US Flag 
08:53AM EDT


 

Airport Tracker/Info


-or-


 

Live Flight TrackerFlight Track Log ✈ EJA982 ✈ 27-Apr-2013 ✈ KPSP - KBFI

Flight Track Log - Related Links

Times and Time Zones

All times are in EDT time to prevent confusion due to time zone crossing. See the EJA982 flight status page for this flight to view local times or setup timezone preferences in your user account.

Time Position Orientation Groundspeed Altitude Reporting Facility
EDT Latitude Longitude Course Direction KTS MPH feet Rate Location/Type
01:58PM 33.8556 -116.5317 342° North 190 219 40,000  Level Los Angeles Center
02:00PM 33.9811 -116.5392 357° North 269 310 10,200 -8,580 Descending Los Angeles Center
02:01PM 34.0614 -116.5267 North 287 330 13,400 2,700 Climbing Los Angeles Center
02:02PM 34.1747 -116.5469 352° North 363 418 15,900 2,280 Climbing Los Angeles Center
02:03PM 34.3417 -116.6033 342° North  Level FlightAware Approximate
02:03PM 34.2633 -116.6150 328° Northwest 386 444 18,200  Level Los Angeles Center
02:04PM 34.3019 -116.7350 291° West 399 459 20,700 2,400 Climbing Los Angeles Center
02:05PM 34.3339 -116.8625 287° West 398 458 23,200 2,220 Climbing Los Angeles Center
02:06PM 34.3667 -116.9956 287° West 405 466 25,300 1,800 Climbing Los Angeles Center
02:07PM 34.4158 -117.1225 295° West 417 480 27,000 1,500 Climbing Los Angeles Center
02:08PM 34.5258 -117.2408 318° Northwest 440 506 28,400 1,380 Climbing Los Angeles Center
02:09PM 34.6236 -117.3425 319° Northwest 455 524 29,900 1,620 Climbing Los Angeles Center
02:10PM 34.7208 -117.4458 319° Northwest 461 531 31,800 1,680 Climbing Los Angeles Center
02:11PM 34.8192 -117.5511 319° Northwest 466 536 33,400 1,500 Climbing Los Angeles Center
02:12PM 34.9217 -117.6600 319° Northwest 477 549 35,000 1,440 Climbing Los Angeles Center
02:13PM 35.0272 -117.7728 319° Northwest 489 563 36,500 1,440 Climbing Los Angeles Center
02:14PM 35.1303 -117.8811 319° Northwest 480 552 38,000 1,380 Climbing Los Angeles Center
02:15PM 35.2306 -117.9889 319° Northwest 479 551 39,400 960 Climbing Los Angeles Center
02:16PM 35.3489 -118.1158 319° Northwest 472 543 40,000 240 Climbing Los Angeles Center
02:17PM 35.4478 -118.2228 319° Northwest 474 545 40,000  Level Los Angeles Center
02:18PM 35.5478 -118.3289 319° Northwest 474 545 40,000  Level Los Angeles Center
02:19PM 35.6264 -118.4128 319° Northwest 472 543 40,000  Level Los Angeles Center
02:20PM 35.7425 -118.5392 319° Northwest 469 540 40,000  Level Los Angeles Center
02:21PM 35.8594 -118.6683 318° Northwest 471 542 40,000  Level Los Angeles Center
02:22PM 35.8772 -118.6878 318° Northwest 472 543 40,000  Level Oakland Center
02:23PM 35.9750 -118.7953 318° Northwest 473 544 40,000  Level Oakland Center
02:24PM 36.1047 -118.8928 329° Northwest 467 537 40,000  Level Oakland Center
02:25PM 36.2317 -118.9347 345° North 468 539 40,000  Level Oakland Center
02:26PM 36.3600 -118.9758 346° North 472 543 40,000  Level Oakland Center
02:27PM 36.4864 -119.0203 344° North 473 544 40,000  Level Oakland Center
02:28PM 36.6125 -119.0611 345° North 472 543 40,000  Level Oakland Center
02:29PM 36.7392 -119.1042 345° North 471 542 40,000  Level Oakland Center
02:30PM 36.8656 -119.1472 345° North 475 547 40,000  Level Oakland Center
02:31PM 37.0169 -119.1989 345° North 476 548 40,000  Level Oakland Center
02:32PM 37.1425 -119.2422 345° North 469 540 40,000  Level Oakland Center
02:33PM 37.2672 -119.2850 345° North 481 554 40,000  Level Oakland Center
02:34PM 37.3922 -119.3297 344° North 470 541 40,000  Level Oakland Center
02:35PM 37.5161 -119.3736 344° North 465 535 40,000  Level Oakland Center
02:36PM 37.6433 -119.4108 347° North 459 528 40,000  Level Oakland Center
02:37PM 37.7678 -119.4542 345° North 462 532 40,000  Level Oakland Center
02:38PM 37.8931 -119.4961 345° North 466 536 40,000  Level Oakland Center
02:39PM 38.0206 -119.5383 345° North 471 542 40,000  Level Oakland Center
02:40PM 38.1697 -119.5919 344° North 469 540 40,000  Level Oakland Center
02:41PM 38.2900 -119.6367 344° North 459 528 40,000  Level Oakland Center
02:42PM 38.4172 -119.6817 345° North 464 534 40,000  Level Oakland Center
02:43PM 38.5419 -119.7267 344° North 464 534 40,000  Level Oakland Center
02:44PM 38.6672 -119.7703 345° North 465 535 40,000  Level Oakland Center
02:45PM 38.7861 -119.8139 344° North 463 533 40,000  Level Oakland Center
02:46PM 38.9103 -119.8569 345° North 463 533 40,000  Level Oakland Center
02:47PM 39.0397 -119.9033 344° North 461 531 40,000  Level Oakland Center
02:48PM 39.1633 -119.9469 345° North 459 528 40,000  Level Oakland Center
02:49PM 39.2867 -119.9933 344° North 460 529 40,000  Level Oakland Center
02:50PM 39.4100 -120.0372 345° North 458 527 40,000  Level Oakland Center
02:51PM 39.5589 -120.0914 344° North 459 528 40,000  Level Oakland Center
02:52PM 39.6708 -120.1333 344° North 458 527 40,000  Level Oakland Center
02:54PM 39.9169 -120.2236 344° North 461 531 40,000  Level Oakland Center
02:55PM 40.0533 -120.2753 344° North 463 533 40,000  Level Oakland Center
02:56PM 40.1783 -120.3222 344° North 465 535 40,000  Level Oakland Center
02:57PM 40.3050 -120.3686 344° North 472 543 40,000  Level Oakland Center
02:59PM 40.4625 -120.4256 345° North 462 532 40,000  Level Seattle Center
03:00PM 40.5878 -120.4731 344° North 464 534 40,000  Level Seattle Center
03:01PM 40.6881 -120.5097 345° North 474 545 40,000  Level Oakland Center
03:02PM 40.8122 -120.5581 344° North 465 535 40,000  Level Oakland Center
03:03PM 40.9378 -120.6036 345° North 468 539 40,000  Level Oakland Center
03:04PM 41.0628 -120.6558 343° North 473 544 40,000  Level Oakland Center
03:05PM 41.2125 -120.7114 344° North 466 536 40,000  Level Oakland Center
03:06PM 41.3378 -120.7600 344° North 468 539 40,000  Level Oakland Center
03:07PM 41.4611 -120.8086 344° North 471 542 40,000  Level Oakland Center
03:08PM 41.5867 -120.8567 344° North 467 537 40,000  Level Seattle Center
03:09PM 41.7347 -120.9156 343° North 464 534 40,000  Level Seattle Center
03:10PM 41.8572 -120.9636 344° North 462 532 40,000  Level Seattle Center
03:11PM 41.9786 -121.0106 344° North 458 527 40,000  Level Seattle Center
03:12PM 42.0992 -121.0592 343° North 455 524 40,000  Level Seattle Center
03:13PM 42.2203 -121.1064 344° North 455 524 40,000  Level Seattle Center
03:14PM 42.3406 -121.1536 344° North 453 521 40,000  Level Seattle Center
03:15PM 42.4592 -121.2017 343° North 450 518 40,000  Level Seattle Center
03:16PM 42.5775 -121.2483 344° North 447 514 40,000  Level Seattle Center
03:17PM 42.6972 -121.2950 344° North 450 518 40,000  Level Seattle Center
03:18PM 42.8156 -121.3444 343° North 448 516 40,000  Level Seattle Center
03:19PM 42.9344 -121.3906 344° North 445 512 40,000  Level Seattle Center
03:20PM 43.0775 -121.4508 343° North 448 516 40,000  Level Seattle Center
03:21PM 43.1964 -121.5003 343° North 448 516 40,000  Level Seattle Center
03:22PM 43.3144 -121.5481 344° North 445 512 40,000  Level Seattle Center
03:23PM 43.4331 -121.5986 343° North 447 514 40,000  Level Seattle Center
03:24PM 43.5522 -121.6472 344° North 447 514 40,000  Level Seattle Center
03:25PM 43.6719 -121.6958 344° North 449 517 40,000  Level Seattle Center
03:26PM 43.7917 -121.7461 343° North 450 518 40,000  Level Seattle Center
03:27PM 43.9200 -121.7964 344° North 447 514 40,000  Level Seattle Center
03:28PM 44.0389 -121.8475 343° North 446 513 40,000  Level Seattle Center
03:29PM 44.1658 -121.8986 344° North 450 518 40,000  Level Seattle Center
03:30PM 44.2864 -121.9514 343° North 454 522 40,000  Level Seattle Center
03:31PM 44.4072 -122.0025 343° North 456 525 40,000  Level Seattle Center
03:32PM 44.5258 -122.0539 343° North 450 518 40,000  Level Seattle Center
03:33PM 44.6450 -122.1047 343° North 450 518 40,000  Level Seattle Center
03:34PM 44.7633 -122.1561 343° North 448 516 40,000  Level Seattle Center
03:35PM 44.8750 -122.2050 343° North 446 513 40,000  Level Seattle Center
03:36PM 44.9911 -122.2561 343° North 443 510 40,000  Level Seattle Center
03:37PM 45.1292 -122.3147 343° North 435 501 40,000  Level Seattle Center
03:38PM 45.2406 -122.3650 342° North 428 493 40,000  Level Seattle Center
03:39PM 45.3525 -122.4139 343° North 425 489 40,000  Level Seattle Center
03:40PM 45.4619 -122.4642 342° North 420 483 40,000  Level Seattle Center
03:41PM 45.5706 -122.5106 343° North 414 476 40,000  Level Seattle Center
03:42PM 45.6783 -122.5592 343° North 410 472 40,000  Level Seattle Center
03:43PM 45.7903 -122.6011 345° North 418 481 40,000 -600 Level Seattle Center
03:44PM 45.9069 -122.6281 351° North 427 491 38,800 -1,740 Descending Seattle Center
03:45PM 46.0239 -122.6575 350° North 428 493 36,500 -2,280 Descending Seattle Center
03:46PM 46.1458 -122.6911 349° North 441 507 34,200 -2,340 Descending Seattle Center
03:47PM 46.2719 -122.7217 350° North 439 505 31,800 -2,340 Descending Seattle Center
03:48PM 46.3894 -122.7544 349° North 434 499 29,500 -2,220 Descending Seattle Center
03:49PM 46.4983 -122.7822 350° North 408 470 27,400 -2,220 Descending Seattle Center
03:50PM 46.6233 -122.8136 350° North 388 447 25,000 -2,220 Descending Seattle Center
03:51PM 46.7253 -122.8397 350° North 378 435 22,900 -2,160 Descending Seattle Center
03:52PM 46.7769 -122.8331 North 359 413 21,700 -2,280 Descending Seattle Center
03:53PM 46.8217 -122.8142 16° North 364 419 20,600 -2,400 Descending Seattle Center
03:53PM 46.8656 -122.7889 21° North 362 417 19,500 -1,980 Descending Seattle Center
03:54PM 46.9133 -122.7597 23° Northeast 358 412 18,600 -1,860 Descending Seattle Center
03:54PM 46.9489 -122.7411 20° North 348 400 17,800 -1,680 Descending Seattle Center
03:55PM 47.0014 -122.7089 23° Northeast 346 398 16,900 -1,680 Descending Seattle Center
03:55PM 47.0381 -122.6900 19° North 339 390 16,100 -1,920 Descending Seattle Center
03:56PM 47.0881 -122.6589 23° Northeast 339 390 15,000 -1,920 Descending Seattle Center
03:56PM 47.1233 -122.6406 19° North 334 384 14,200 -1,920 Descending Seattle Center
03:57PM 47.1719 -122.6111 22° Northeast 328 377 13,100 -1,980 Descending Seattle Center
03:57PM 47.2086 -122.5911 20° North 327 376 12,200 -1,500 Descending Seattle Center
03:58PM 47.2556 -122.5775 11° North 309 356 11,600 -1,200 Descending Seattle Center
03:58PM 47.2964 -122.5694 North 284 327 11,000 -1,380 Descending Seattle Center
03:59PM 47.3494 -122.5592 North 287 330 10,200 -1,500 Descending Seattle Center
03:59PM 47.3769 -122.5550 North 287 330 9,500 -1,800 Descending Seattle Center
04:00PM 47.4303 -122.5453 North 294 338 8,400 -1,620 Descending Seattle Center
04:00PM 47.4558 -122.5414 North 278 320 7,900 -1,380 Descending Seattle Center
04:01PM 47.5036 -122.5347 North 268 308 7,000 -1,440 Descending Seattle Center
04:01PM 47.5361 -122.5433 350° North 262 302 6,300 -2,100 Descending Seattle Center
04:02PM 47.5794 -122.5569 348° North 264 304 4,900 -1,800 Descending Seattle Center
04:02PM 47.6050 -122.5614 353° North 252 290 4,500 -1,140 Descending Seattle Center
04:03PM 47.6500 -122.5539 North 256 295 3,800 -1,380 Descending Seattle Center
04:03PM 47.6714 -122.5153 51° Northeast 265 305 3,100 -1,500 Descending Seattle Center
04:04PM 47.6881 -122.4642 64° Northeast 253 291 2,300 -900 Descending Seattle Center
04:04PM 47.6747 -122.4311 121° Southeast 200 230 2,200 -120 Descending Seattle Center
04:05PM 47.6514 -122.4075 146° Southeast 192 221 2,200 -120 Level Seattle Center
04:05PM 47.6317 -122.3925 153° Southeast 166 191 2,100 -540 Descending Seattle Center
04:06PM 47.6086 -122.3703 147° Southeast 178 205 1,700 -840 Descending Seattle Center
04:06PM 47.5903 -122.3528 147° Southeast 175 201 1,300 -900 Descending Seattle Center
04:07PM 47.5706 -122.3383 154° Southeast 157 181 800 -840 Descending Seattle Center
04:07PM 47.5575 -122.3281 152° Southeast 138 159 500 -540 Descending Seattle Center
04:08PM 47.5408 -122.3122 147° Southeast 124 143 300 -360 Descending Seattle Center